Location: Monfort
(47.1967°N, 0.2115°W)
Time: 11:34:06
(UTC+00:00)

H-2A R/B - Pass Details

Date: 24 October 2020
Orbit: 733 x 837 km, 98.2° (Epoch: 28 November)

Event Time Altitude Azimuth Distance (km) Brightness Sun altitude
Rises 18:51:50 0° 163° (SSE) 3,333 5.1 -20.2°
Reaches altitude 10° 18:54:09 10° 163° (SSE) 2,416 4.4 -20.6°
Maximum altitude 18:59:33 86° 76° (ENE) 842 2.1 -21.5°
Drops below altitude 10° 19:05:02 10° 347° (NNW) 2,462 4.8 -22.4°
Sets 19:07:25 0° 347° (NNW) 3,401 5.6 -22.8°
